| time (UTC) | temp F | wind direction | speed MPH | gust MPH | rain 1hr in | rain 24hr in | rain mn in | humidity % | barometer mb |
| 20260510172516 | 55 | 25 | 3.0 | 10.0 | 0.02 | 0.57 | 0.57 | 97 | 989.2 |
| 20260510171517 | 55 | 27 | 3.0 | 6.0 | 0.04 | 0.57 | 0.57 | 97 | 989.2 |
| 20260510170538 | 55 | 38 | 3.0 | 8.0 | 0.04 | 0.57 | 0.57 | 97 | 989.3 |
| 20260510165519 | 55 | 38 | 4.0 | 8.0 | 0.06 | 0.57 | 0.57 | 97 | 989.3 |
| 20260510164520 | 55 | 38 | 5.0 | 12.0 | 0.06 | 0.56 | 0.56 | 97 | 989.5 |
| 20260510163516 | 55 | 26 | 4.0 | 7.0 | 0.07 | 0.55 | 0.55 | 97 | 989.6 |
| 20260510162517 | 55 | 32 | 3.0 | 9.0 | 0.09 | 0.55 | 0.55 | 97 | 989.7 |
| 20260510161538 | 55 | 34 | 3.0 | 6.0 | 0.12 | 0.54 | 0.54 | 97 | 989.7 |
| 20260510160519 | 56 | 22 | 3.0 | 6.0 | 0.16 | 0.53 | 0.53 | 97 | 989.8 |
| 20260510155516 | 56 | 51 | 1.0 | 6.0 | 0.18 | 0.51 | 0.51 | 96 | 990.0 |
| 20260510154516 | 56 | 42 | 3.0 | 7.0 | 0.20 | 0.50 | 0.50 | 96 | 990.0 |
| 20260510153518 | 56 | 39 | 3.0 | 7.0 | 0.20 | 0.48 | 0.48 | 96 | 990.1 |
| 20260510152518 | 56 | 38 | 4.0 | 7.0 | 0.20 | 0.46 | 0.46 | 96 | 990.2 |
| 20260510151520 | 57 | 38 | 3.0 | 8.0 | 0.18 | 0.42 | 0.42 | 96 | 990.1 |
| 20260510150520 | 57 | 32 | 2.0 | 4.0 | 0.14 | 0.37 | 0.37 | 96 | 990.3 |
| 20260510145516 | 57 | 29 | 2.0 | 4.0 | 0.10 | 0.33 | 0.33 | 96 | 990.3 |
| 20260510144517 | 57 | 22 | 2.0 | 4.0 | 0.08 | 0.30 | 0.30 | 96 | 990.3 |
| 20260510143518 | 57 | 39 | 3.0 | 6.0 | 0.08 | 0.28 | 0.28 | 95 | 990.4 |
| 20260510142604 | 57 | 5 | 3.0 | 7.0 | 0.06 | 0.26 | 0.26 | 95 | 990.4 |
| 20260510141517 | 58 | 36 | 3.0 | 6.0 | 0.04 | 0.24 | 0.24 | 96 | 990.5 |
| 20260510140517 | 58 | 356 | 1.0 | 5.0 | 0.04 | 0.23 | 0.23 | 95 | 990.5 |
| 20260510135537 | 58 | 0 | 1.0 | 5.0 | 0.06 | 0.23 | 0.23 | 95 | 990.6 |
| 20260510134519 | 57 | 291 | 1.0 | 4.0 | 0.07 | 0.22 | 0.22 | 95 | 990.7 |
| 20260510133520 | 57 | 26 | 3.0 | 5.0 | 0.10 | 0.20 | 0.20 | 94 | 991.2 |
| 20260510132516 | 58 | 27 | 3.0 | 6.0 | 0.14 | 0.20 | 0.20 | 94 | 991.1 |
| 20260510131537 | 58 | 305 | 0.0 | 3.0 | 0.16 | 0.20 | 0.20 | 94 | 991.0 |
| 20260510130518 | 58 | 10 | 0.0 | 3.0 | 0.15 | 0.19 | 0.19 | 93 | 991.3 |
| 20260510125529 | 58 | 343 | 1.0 | 3.0 | 0.13 | 0.17 | 0.17 | 92 | 991.2 |
| 20260510124515 | 59 | 321 | 0.0 | 1.0 | 0.11 | 0.15 | 0.15 | 91 | 991.2 |
| 20260510122523 | 60 | 54 | 1.0 | 3.0 | 0.02 | 0.06 | 0.06 | 87 | 991.5 |
| 20260510121519 | 61 | 38 | 2.0 | 3.0 | 0.00 | 0.04 | 0.04 | 84 | 991.5 |
| 20260510120520 | 61 | 70 | 1.0 | 2.0 | 0.00 | 0.04 | 0.04 | 82 | 991.5 |
| 20260510115516 | 61 | 43 | 0.0 | 1.0 | 0.00 | 0.04 | 0.04 | 82 | 991.5 |
| 20260510114517 | 61 | 24 | 1.0 | 5.0 | 0.00 | 0.04 | 0.04 | 81 | 991.5 |
| 20260510113519 | 61 | 43 | 2.0 | 4.0 | 0.00 | 0.04 | 0.04 | 81 | 991.7 |
| 20260510112540 | 61 | 27 | 4.0 | 7.0 | 0.00 | 0.04 | 0.04 | 81 | 991.6 |
| 20260510111516 | 61 | 40 | 2.0 | 6.0 | 0.00 | 0.04 | 0.04 | 81 | 991.6 |
| 20260510110537 | 61 | 39 | 4.0 | 8.0 | 0.00 | 0.04 | 0.04 | 82 | 991.7 |
| 20260510105518 | 61 | 34 | 4.0 | 7.0 | 0.00 | 0.04 | 0.04 | 82 | 991.8 |
| 20260510104519 | 61 | 59 | 1.0 | 3.0 | 0.00 | 0.04 | 0.04 | 82 | 991.9 |
| 20260510103520 | 61 | 43 | 4.0 | 6.0 | 0.00 | 0.04 | 0.04 | 82 | 991.9 |
| 20260510102516 | 61 | 53 | 3.0 | 7.0 | 0.00 | 0.04 | 0.04 | 82 | 991.9 |
| 20260510101517 | 60 | 39 | 4.0 | 8.0 | 0.00 | 0.04 | 0.04 | 82 | 991.8 |
| 20260510100518 | 60 | 47 | 5.0 | 8.0 | 0.00 | 0.04 | 0.04 | 83 | 992.0 |
| 20260510095519 | 60 | 42 | 3.0 | 5.0 | 0.00 | 0.04 | 0.04 | 84 | 992.0 |
| 20260510094515 | 59 | 33 | 5.0 | 8.0 | 0.00 | 0.04 | 0.04 | 84 | 991.9 |
| 20260510093516 | 59 | 44 | 4.0 | 7.0 | 0.00 | 0.04 | 0.04 | 84 | 992.0 |
| 20260510092517 | 58 | 24 | 4.0 | 7.0 | 0.00 | 0.04 | 0.04 | 84 | 991.9 |
| 20260510091518 | 58 | 43 | 4.0 | 9.0 | 0.00 | 0.04 | 0.04 | 85 | 991.9 |
| 20260510090519 | 58 | 56 | 2.0 | 5.0 | 0.00 | 0.04 | 0.04 | 87 | 991.9 |
| 20260510085515 | 57 | 37 | 5.0 | 8.0 | 0.00 | 0.04 | 0.04 | 87 | 991.8 |
| 20260510084536 | 56 | 27 | 4.0 | 8.0 | 0.00 | 0.04 | 0.04 | 88 | 991.7 |
| 20260510083517 | 56 | 40 | 4.0 | 8.0 | 0.00 | 0.04 | 0.04 | 89 | 991.6 |
| 20260510082518 | 56 | 31 | 3.0 | 5.0 | 0.00 | 0.04 | 0.04 | 89 | 991.7 |
| 20260510081519 | 55 | 44 | 2.0 | 4.0 | 0.00 | 0.04 | 0.04 | 90 | 991.9 |
| 20260510080515 | 55 | 55 | 0.0 | 3.0 | 0.01 | 0.04 | 0.04 | 91 | 992.0 |
| 20260510075516 | 55 | 18 | 1.0 | 2.0 | 0.01 | 0.04 | 0.04 | 91 | 992.1 |
| 20260510074518 | 54 | 21 | 0.0 | 1.0 | 0.01 | 0.04 | 0.04 | 91 | 991.8 |
| 20260510073519 | 54 | 21 | 1.0 | 3.0 | 0.01 | 0.04 | 0.04 | 91 | 991.7 |
| 20260510072515 | 54 | 47 | 2.0 | 4.0 | 0.01 | 0.04 | 0.04 | 92 | 991.5 |
| 20260510071536 | 54 | 332 | 1.0 | 2.0 | 0.02 | 0.04 | 0.04 | 92 | 991.3 |
| 20260510070517 | 54 | 227 | 1.0 | 3.0 | 0.03 | 0.03 | 0.03 | 91 | 991.4 |
| 20260510065519 | 53 | 7 | 2.0 | 6.0 | 0.03 | 0.03 | 0.03 | 90 | 991.1 |
| 20260510064520 | 53 | 49 | 1.0 | 5.0 | 0.03 | 0.03 | 0.03 | 89 | 991.1 |
| 20260510063556 | 53 | 40 | 7.0 | 13.0 | 0.03 | 0.03 | 0.03 | 88 | 990.9 |
| 20260510062517 | 54 | 35 | 9.0 | 16.0 | 0.03 | 0.03 | 0.03 | 87 | 991.0 |
| 20260510061518 | 55 | 45 | 7.0 | 13.0 | 0.02 | 0.02 | 0.02 | 83 | 991.4 |
| 20260510060519 | 56 | 28 | 5.0 | 9.0 | 0.00 | 0.00 | 0.00 | 78 | 991.3 |
| 20260510055520 | 56 | 40 | 5.0 | 9.0 | 0.00 | 0.00 | 0.00 | 78 | 991.3 |
| 20260510054516 | 56 | 33 | 5.0 | 8.0 | 0.00 | 0.00 | 0.00 | 77 | 991.4 |
| 20260510053517 | 56 | 52 | 3.0 | 7.0 | 0.00 | 0.00 | 0.00 | 77 | 991.5 |
| 20260510052518 | 56 | 37 | 4.0 | 7.0 | 0.00 | 0.00 | 0.00 | 77 | 991.6 |
| 20260510051519 | 56 | 21 | 3.0 | 5.0 | 0.00 | 0.00 | 0.00 | 77 | 991.7 |
| 20260510050520 | 56 | 39 | 4.0 | 6.0 | 0.00 | 0.00 | 0.00 | 76 | 991.7 |
| 20260510045516 | 56 | 46 | 1.0 | 5.0 | 0.00 | 0.00 | 0.00 | 75 | 991.6 |
| 20260510044518 | 56 | 35 | 6.0 | 9.0 | 0.00 | 0.00 | 0.00 | 75 | 991.4 |
| 20260510043519 | 56 | 33 | 4.0 | 7.0 | 0.00 | 0.00 | 0.00 | 75 | 991.4 |
| 20260510042520 | 56 | 15 | 4.0 | 7.0 | 0.00 | 0.00 | 0.00 | 75 | 991.5 |
| 20260510041541 | 56 | 38 | 4.0 | 8.0 | 0.00 | 0.00 | 0.00 | 75 | 991.5 |
| 20260510040517 | 56 | 38 | 4.0 | 7.0 | 0.00 | 0.00 | 0.00 | 76 | 991.6 |
| 20260510035518 | 56 | 35 | 4.0 | 8.0 | 0.00 | 0.00 | 0.00 | 77 | 991.6 |
| 20260510034539 | 57 | 25 | 3.0 | 6.0 | 0.00 | 0.00 | 0.00 | 76 | 991.8 |
| 20260510033520 | 57 | 32 | 3.0 | 5.0 | 0.00 | 0.00 | 0.00 | 74 | 991.8 |
| 20260510032516 | 57 | 27 | 2.0 | 5.0 | 0.00 | 0.00 | 0.00 | 74 | 991.9 |
| 20260510031517 | 57 | 35 | 3.0 | 7.0 | 0.00 | 0.00 | 0.00 | 74 | 992.0 |
| 20260510030518 | 57 | 29 | 3.0 | 6.0 | 0.00 | 0.00 | 0.00 | 75 | 992.1 |
| 20260510025518 | 57 | 38 | 3.0 | 6.0 | 0.00 | 0.00 | 0.00 | 76 | 992.2 |
| 20260510024519 | 58 | 26 | 3.0 | 5.0 | 0.00 | 0.00 | 0.00 | 75 | 992.1 |
| 20260510023515 | 58 | 34 | 4.0 | 7.0 | 0.00 | 0.00 | 0.00 | 75 | 992.1 |
| 20260510022517 | 58 | 36 | 3.0 | 5.0 | 0.00 | 0.00 | 0.00 | 75 | 992.1 |
| 20260510021518 | 58 | 46 | 3.0 | 6.0 | 0.00 | 0.00 | 0.00 | 76 | 992.3 |
| 20260510020519 | 58 | 31 | 2.0 | 6.0 | 0.00 | 0.00 | 0.00 | 75 | 992.3 |
| 20260510015520 | 58 | 27 | 2.0 | 6.0 | 0.00 | 0.00 | 0.00 | 75 | 992.4 |
| 20260510014556 | 58 | 20 | 3.0 | 6.0 | 0.00 | 0.00 | 0.00 | 75 | 992.4 |
| 20260510013517 | 58 | 26 | 3.0 | 5.0 | 0.00 | 0.00 | 0.00 | 75 | 992.5 |
| 20260510012538 | 59 | 29 | 3.0 | 7.0 | 0.00 | 0.00 | 0.00 | 75 | 992.5 |
| 20260510011519 | 59 | 33 | 3.0 | 7.0 | 0.00 | 0.00 | 0.00 | 75 | 992.7 |
| 20260510010520 | 59 | 26 | 3.0 | 6.0 | 0.00 | 0.00 | 0.00 | 75 | 992.8 |
| 20260510005521 | 59 | 27 | 3.0 | 4.0 | 0.00 | 0.00 | 0.00 | 76 | 992.9 |
| 20260510004557 | 59 | 26 | 3.0 | 8.0 | 0.00 | 0.00 | 0.00 | 75 | 993.1 |
| 20260510003518 | 59 | 34 | 3.0 | 6.0 | 0.00 | 0.00 | 0.00 | 75 | 993.3 |
| 20260510002519 | 59 | 32 | 4.0 | 8.0 | 0.00 | 0.00 | 0.00 | 76 | 993.4 |
| 20260510001520 | 59 | 31 | 2.0 | 6.0 | 0.00 | 0.00 | 0.00 | 77 | 993.4 |
| 20260510000537 | 58 | 23 | 2.0 | 4.0 | 0.00 | 0.00 | 0.00 | 79 | 993.6 |
| 20260509235518 | 58 | 16 | 2.0 | 3.0 | 0.00 | 0.00 | 0.00 | 80 | 993.8 |
| 20260509234519 | 57 | 28 | 2.0 | 8.0 | 0.00 | 0.00 | 0.00 | 83 | 993.8 |
| 20260509233540 | 55 | 8 | 1.0 | 3.0 | 0.00 | 0.00 | 0.00 | 89 | 993.8 |
| 20260509232516 | 54 | 357 | 0.0 | 2.0 | 0.00 | 0.00 | 0.00 | 92 | 993.9 |
| 20260509231518 | 54 | 0.0 | 0.0 | 0.00 | 0.00 | 0.00 | 92 | 994.0 | |
| 20260509230519 | 54 | 343 | 0.0 | 3.0 | 0.00 | 0.00 | 0.00 | 93 | 994.0 |
| 20260509225520 | 54 | 0.0 | 0.0 | 0.00 | 0.00 | 0.00 | 93 | 994.1 | |
| 20260509224516 | 54 | 0.0 | 0.0 | 0.00 | 0.00 | 0.00 | 92 | 994.0 | |
| 20260509223518 | 54 | 0.0 | 0.0 | 0.00 | 0.00 | 0.00 | 92 | 994.1 | |
| 20260509222519 | 54 | 0.0 | 0.0 | 0.00 | 0.00 | 0.00 | 92 | 994.1 | |
| 20260509221520 | 54 | 0.0 | 0.0 | 0.00 | 0.00 | 0.00 | 91 | 994.1 | |
| 20260509220516 | 55 | 0.0 | 0.0 | 0.00 | 0.00 | 0.00 | 91 | 994.0 | |
| 20260509215517 | 55 | 0.0 | 0.0 | 0.00 | 0.00 | 0.00 | 91 | 994.0 | |
| 20260509214518 | 55 | 0.0 | 0.0 | 0.00 | 0.00 | 0.00 | 91 | 994.1 | |
| 20260509213519 | 55 | 0.0 | 0.0 | 0.00 | 0.00 | 0.00 | 90 | 994.1 | |
| 20260509212515 | 55 | 0.0 | 0.0 | 0.00 | 0.00 | 0.00 | 90 | 994.1 | |
| 20260509211537 | 56 | 0.0 | 0.0 | 0.00 | 0.00 | 0.00 | 89 | 994.2 | |
| 20260509210538 | 56 | 0.0 | 0.0 | 0.00 | 0.00 | 0.00 | 89 | 994.2 | |
| 20260509205539 | 57 | 0.0 | 0.0 | 0.00 | 0.00 | 0.00 | 88 | 994.1 | |
| 20260509204515 | 57 | 0.0 | 0.0 | 0.00 | 0.00 | 0.00 | 87 | 993.9 | |
| 20260509203517 | 57 | 0.0 | 0.0 | 0.00 | 0.00 | 0.00 | 86 | 993.9 | |
| 20260509202518 | 58 | 0.0 | 0.0 | 0.00 | 0.00 | 0.00 | 85 | 993.9 | |
| 20260509201519 | 59 | 0.0 | 0.0 | 0.00 | 0.00 | 0.00 | 85 | 993.9 | |
| 20260509200515 | 59 | 0.0 | 0.0 | 0.00 | 0.00 | 0.00 | 84 | 993.9 | |
| 20260509195536 | 60 | 0.0 | 0.0 | 0.00 | 0.00 | 0.00 | 83 | 993.8 | |
| 20260509194517 | 61 | 0.0 | 0.0 | 0.00 | 0.00 | 0.00 | 82 | 993.8 | |
| 20260509193519 | 62 | 0.0 | 0.0 | 0.00 | 0.00 | 0.00 | 79 | 993.7 | |
| 20260509192515 | 63 | 0.0 | 0.0 | 0.00 | 0.00 | 0.00 | 78 | 993.6 | |
| 20260509191516 | 64 | 0.0 | 0.0 | 0.00 | 0.00 | 0.00 | 75 | 993.6 | |
| 20260509190517 | 65 | 0.0 | 0.0 | 0.00 | 0.00 | 0.00 | 73 | 993.5 | |
| 20260509185518 | 67 | 0.0 | 0.0 | 0.00 | 0.00 | 0.00 | 71 | 993.4 | |
| 20260509184515 | 68 | 0.0 | 0.0 | 0.00 | 0.00 | 0.00 | 67 | 993.3 | |
| 20260509183536 | 69 | 0.0 | 0.0 | 0.00 | 0.00 | 0.00 | 65 | 993.3 | |
| 20260509182517 | 70 | 28 | 2.0 | 5.0 | 0.00 | 0.00 | 0.00 | 61 | 993.2 |
| 20260509181518 | 71 | 31 | 3.0 | 5.0 | 0.00 | 0.00 | 0.00 | 59 | 993.1 |
| 20260509180514 | 71 | 25 | 3.0 | 6.0 | 0.00 | 0.00 | 0.00 | 58 | 993.0 |
| 20260509175516 | 71 | 40 | 4.0 | 8.0 | 0.00 | 0.00 | 0.00 | 57 | 993.1 |
| 20260509174517 | 72 | 33 | 3.0 | 7.0 | 0.00 | 0.00 | 0.00 | 56 | 993.1 |
| 20260509173518 | 72 | 42 | 3.0 | 6.0 | 0.00 | 0.00 | 0.00 | 56 | 993.1 |